This demonstration page uses our WeatherBlox Daily Observations layout. Learn more.

Left ArrowRight Arrow

41.12389, -100.76542

Hourly Observations for January 3, 2018

Temp ( °F °C ) Dew Point ( °F °C ) Humidity (%) Winds ( mph kmh ) Pressure ( in mb ) Visibility ( mi km ) Precip ( " mm )
12:53 am 00:53 Clear 11 -11.7 7 -13.9 84 84 NW 10 17 30.42 1030 10 16 0.00 0.00
1:53 am 01:53 Clear 11 -11.7 6 -14.4 81 81 W 7 11 30.40 1030 10 16 0.00 0.00
2:53 am 02:53 Clear 10 -12.2 5 -15 80 80 NW 9 15 30.41 1030 10 16 0.00 0.00
3:53 am 03:53 Clear 12 -11.1 7 -13.9 80 80 NW 10 17 30.42 1030 10 16 0.00 0.00
4:53 am 04:53 Clear 11 -11.7 7 -13.9 84 84 NW 5 7 30.42 1030 10 16 0.00 0.00
5:53 am 05:53 Clear 9 -12.8 5 -15 84 84 NW 7 11 30.43 1031 10 16 0.00 0.00
6:53 am 06:53 Clear 9 -12.8 6 -14.4 88 88 NW 7 11 30.45 1031 10 16 0.00 0.00
7:53 am 07:53 Clear 5 -15 2 -16.7 87 87 WNW 7 11 30.45 1031 10 16 0.00 0.00
8:53 am 08:53 Sunny 7 -13.9 4 -15.6 87 87 NW 6 9 30.46 1031 10 16 0.00 0.00
9:53 am 09:53 Sunny 13 -10.6 7 -13.9 77 77 NW 7 11 30.46 1032 10 16 0.00 0.00
10:53 am 10:53 Sunny 20 -6.7 11 -11.7 68 68 WNW 9 15 30.46 1032 10 16 0.00 0.00
11:53 am 11:53 Sunny 25 -3.9 13 -10.6 60 60 W 6 9 30.43 1031 10 16 0.00 0.00
12:53 pm 12:53 Sunny 27 -2.8 15 -9.4 61 61 W 8 13 30.40 1030 10 16 0.00 0.00
1:53 pm 13:53 Sunny 29 -1.7 16 -8.9 58 58 W 6 9 30.37 1028 10 16 0.00 0.00
2:53 pm 14:53 Sunny 30 -1.1 18 -7.8 61 61 SW 5 7 30.36 1028 10 16 0.00 0.00
3:53 pm 15:53 Sunny 30 -1.1 18 -7.8 61 61 WSW 5 7 30.35 1028 10 16 0.00 0.00
4:53 pm 16:53 Sunny 29 -1.7 18 -7.8 63 63 Calm 30.33 1027 10 16 0.00 0.00
5:53 pm 17:53 Clear 22 -5.6 16 -8.9 78 78 Calm 30.35 1028 10 16 0.00 0.00
6:53 pm 18:53 Clear 20 -6.7 15 -9.4 81 81 SSW 3 6 30.36 1028 10 16 0.00 0.00
7:53 pm 19:53 Clear 18 -7.8 14 -10 84 84 Calm 30.37 1029 10 16 0.00 0.00
8:53 pm 20:53 Mostly Clear 19 -7.2 16 -8.9 88 88 Calm 30.37 1029 10 16 0.00 0.00
9:53 pm 21:53 Clear 22 -5.6 18 -7.8 85 85 Calm 30.35 1028 10 16 0.00 0.00
10:53 pm 22:53 Partly Cloudy 23 -5 18 -7.8 81 81 S 3 6 30.33 1027 10 16 0.00 0.00
11:53 pm 23:53 Mostly Cloudy 22 -5.6 19 -7.2 89 89 Calm 30.33 1027 10 16 0.00 0.00

Powered by AerisWeather